NDF4MA LGIR-LGKR

Flight info

Callsign NDF4MA
Flight time 1h 0m
Altitude 30000
Route EPALO1E EPALO M749 DIRMI UL613 KOR UL53 PARNA PARNA1P
Aircraft A321/M-SDE3FGHIRWY/LB1

Departure

Time 2026-05-07 06:35
Airport Heraklion International Nikos Kazantzakis Airport (LGIR)

Arrival

Time 2026-05-07 07:36
Airport Corfu Ioannis Kapodistrias International Airport (LGKR)
Time Latitude Longitude Altitude Speed Heading
2026-05-07 06:17 35.33819 25.17417 91 ft 0 kts 317°
2026-05-07 06:30 35.33820 25.17416 92 ft 1 kts 322°
2026-05-07 06:30 35.33863 25.17395 91 ft 9 kts 338°
2026-05-07 06:31 35.33917 25.17354 90 ft 12 kts 303°
2026-05-07 06:31 35.33931 25.17229 91 ft 15 kts 275°
2026-05-07 06:31 35.33940 25.17098 90 ft 15 kts 275°
2026-05-07 06:31 35.33948 25.16971 90 ft 15 kts 275°
2026-05-07 06:32 35.33957 25.16849 92 ft 14 kts 275°
2026-05-07 06:32 35.33978 25.16740 93 ft 13 kts 301°
2026-05-07 06:32 35.33982 25.16733 91 ft 0 kts 302°
2026-05-07 06:32 35.33993 25.16711 90 ft 9 kts 303°
2026-05-07 06:33 35.34050 25.16612 91 ft 16 kts 304°
2026-05-07 06:33 35.34082 25.16491 92 ft 15 kts 275°
2026-05-07 06:33 35.34090 25.16367 91 ft 15 kts 275°
2026-05-07 06:33 35.34099 25.16241 91 ft 14 kts 277°
2026-05-07 06:34 35.34119 25.16146 91 ft 8 kts 243°
2026-05-07 06:34 35.34097 25.16154 92 ft 4 kts 129°
2026-05-07 06:34 35.34102 25.16191 91 ft 5 kts 77°
2026-05-07 06:34 35.34099 25.16241 91 ft 12 kts 95°
2026-05-07 06:35 35.34072 25.16650 91 ft 84 kts 94°
2026-05-07 06:35 35.34005 25.17614 92 ft 140 kts 95°
2026-05-07 06:35 35.33908 25.18946 316 ft 161 kts 95°
2026-05-07 06:35 35.33821 25.20257 1031 ft 153 kts 92°
2026-05-07 06:36 35.34058 25.21522 1578 ft 156 kts 61°
2026-05-07 06:36 35.34826 25.22511 1929 ft 171 kts 29°
2026-05-07 06:36 35.36037 25.22861 2132 ft 192 kts 354°
2026-05-07 06:36 35.37300 25.22199 2270 ft 211 kts 315°
2026-05-07 06:37 35.38078 25.20645 2725 ft 219 kts 294°
2026-05-07 06:37 35.38722 25.18950 3513 ft 219 kts 295°
2026-05-07 06:37 35.39368 25.17249 4299 ft 222 kts 295°
2026-05-07 06:37 35.40091 25.15571 5039 ft 225 kts 308°
2026-05-07 06:38 35.40839 25.14692 5514 ft 227 kts 327°
2026-05-07 06:38 35.42833 25.13653 6151 ft 250 kts 340°
2026-05-07 06:38 35.43971 25.13155 6394 ft 265 kts 340°
2026-05-07 06:38 35.46340 25.12133 7300 ft 276 kts 340°
2026-05-07 06:39 35.47570 25.11602 7836 ft 279 kts 340°
2026-05-07 06:39 35.49412 25.10803 8648 ft 282 kts 340°
2026-05-07 06:39 35.51874 25.09727 9709 ft 285 kts 340°
2026-05-07 06:39 35.53759 25.08901 10382 ft 294 kts 340°
2026-05-07 06:40 35.55099 25.08313 10537 ft 310 kts 340°
2026-05-07 06:40 35.57918 25.07066 10822 ft 339 kts 340°
2026-05-07 06:40 35.59433 25.06395 11180 ft 345 kts 340°
2026-05-07 06:40 35.61708 25.05385 11862 ft 350 kts 340°
2026-05-07 06:41 35.64010 25.04365 12576 ft 353 kts 339°
2026-05-07 06:41 35.66330 25.03338 13290 ft 356 kts 339°
2026-05-07 06:41 35.68673 25.02303 13985 ft 359 kts 339°
2026-05-07 06:41 35.71036 25.01259 14659 ft 363 kts 339°
2026-05-07 06:42 35.73419 25.00191 15326 ft 366 kts 339°
2026-05-07 06:42 35.75812 24.99079 15948 ft 369 kts 338°
2026-05-07 06:42 35.78190 24.97952 16557 ft 373 kts 338°
2026-05-07 06:42 35.80620 24.96793 17165 ft 376 kts 338°
2026-05-07 06:43 35.83069 24.95624 17745 ft 379 kts 338°
2026-05-07 06:43 35.85544 24.94450 18307 ft 383 kts 337°
2026-05-07 06:43 35.88039 24.93275 18861 ft 386 kts 337°
2026-05-07 06:43 35.90558 24.92091 19391 ft 389 kts 337°
2026-05-07 06:44 35.93091 24.90897 19907 ft 392 kts 337°
2026-05-07 06:44 35.95646 24.89689 20412 ft 395 kts 337°
2026-05-07 06:44 35.98221 24.88472 20911 ft 398 kts 337°
2026-05-07 06:44 36.00816 24.87245 21397 ft 401 kts 337°
2026-05-07 06:45 36.03427 24.86007 21871 ft 404 kts 336°
2026-05-07 06:45 36.05941 24.84456 22320 ft 405 kts 327°
2026-05-07 06:45 36.08219 24.82409 22769 ft 406 kts 320°
2026-05-07 06:45 36.10427 24.80209 23209 ft 409 kts 320°
2026-05-07 06:46 36.12652 24.78001 23649 ft 412 kts 320°
2026-05-07 06:46 36.14894 24.75779 24084 ft 414 kts 319°
2026-05-07 06:46 36.17142 24.73548 24583 ft 414 kts 319°
2026-05-07 06:46 36.19391 24.71314 25067 ft 415 kts 319°
2026-05-07 06:47 36.21646 24.69075 25470 ft 417 kts 319°
2026-05-07 06:47 36.23914 24.66820 25849 ft 419 kts 319°
2026-05-07 06:47 36.26195 24.64547 26218 ft 422 kts 319°
2026-05-07 06:47 36.28490 24.62262 26573 ft 425 kts 319°
2026-05-07 06:48 36.30797 24.59962 26952 ft 426 kts 319°
2026-05-07 06:48 36.33111 24.57652 27312 ft 428 kts 319°
2026-05-07 06:48 36.35437 24.55327 27666 ft 430 kts 319°
2026-05-07 06:48 36.37772 24.52994 27997 ft 432 kts 319°
2026-05-07 06:49 36.40123 24.50644 28307 ft 435 kts 319°
2026-05-07 06:49 36.42482 24.48282 28612 ft 437 kts 319°
2026-05-07 06:49 36.44851 24.45908 28904 ft 439 kts 319°
2026-05-07 06:49 36.47237 24.43518 29214 ft 441 kts 319°
2026-05-07 06:50 36.49628 24.41124 29532 ft 442 kts 319°
2026-05-07 06:50 36.51992 24.38754 29838 ft 443 kts 319°
2026-05-07 06:50 36.54393 24.36345 30149 ft 445 kts 319°
2026-05-07 06:50 36.56804 24.33921 30480 ft 445 kts 319°
2026-05-07 06:51 36.59211 24.31496 30840 ft 445 kts 319°
2026-05-07 06:51 36.61613 24.29076 31218 ft 444 kts 319°
2026-05-07 06:51 36.64012 24.26657 31616 ft 443 kts 319°
2026-05-07 06:51 36.66404 24.24239 31946 ft 443 kts 319°
2026-05-07 06:52 36.71125 24.19465 32038 ft 430 kts 319°
2026-05-07 06:52 36.75746 24.14792 32037 ft 427 kts 319°
2026-05-07 06:53 36.80343 24.10118 32037 ft 426 kts 319°
2026-05-07 06:53 36.84942 24.05450 32038 ft 426 kts 319°
2026-05-07 06:54 36.89543 24.00776 32036 ft 426 kts 319°
2026-05-07 06:54 36.94137 23.96096 32033 ft 426 kts 319°
2026-05-07 06:55 36.98728 23.91411 32032 ft 426 kts 319°
2026-05-07 06:55 37.03322 23.86725 32033 ft 426 kts 319°
2026-05-07 06:56 37.07920 23.82037 32032 ft 426 kts 319°
2026-05-07 06:56 37.12508 23.77336 32032 ft 426 kts 319°
2026-05-07 06:57 37.17094 23.72629 32032 ft 426 kts 319°
2026-05-07 06:57 37.21685 23.67919 32034 ft 426 kts 319°
2026-05-07 06:58 37.26271 23.63205 32035 ft 426 kts 319°
2026-05-07 06:58 37.30850 23.58475 32034 ft 426 kts 318°
2026-05-07 06:59 37.35392 23.53773 32033 ft 426 kts 318°
2026-05-07 06:59 37.39963 23.49038 32029 ft 425 kts 318°
2026-05-07 07:00 37.44532 23.44311 32026 ft 425 kts 318°
2026-05-07 07:00 37.49103 23.39576 32026 ft 426 kts 318°
2026-05-07 07:01 37.53674 23.34835 32033 ft 426 kts 317°
2026-05-07 07:01 37.58236 23.30088 32041 ft 425 kts 317°
2026-05-07 07:02 37.62791 23.25338 32044 ft 425 kts 317°
2026-05-07 07:02 37.67337 23.20583 32044 ft 424 kts 317°
2026-05-07 07:03 37.71883 23.15828 32044 ft 424 kts 317°
2026-05-07 07:03 37.76428 23.11077 32043 ft 424 kts 317°
2026-05-07 07:04 37.80971 23.06316 32044 ft 424 kts 317°
2026-05-07 07:04 37.85509 23.01549 32042 ft 424 kts 317°
2026-05-07 07:05 37.90042 22.96771 32040 ft 424 kts 317°
2026-05-07 07:05 37.94184 22.91531 32040 ft 419 kts 303°
2026-05-07 07:06 37.97504 22.85466 32038 ft 419 kts 303°
2026-05-07 07:06 38.00848 22.79410 32037 ft 419 kts 303°
2026-05-07 07:07 38.04191 22.73348 32037 ft 419 kts 303°
2026-05-07 07:07 38.07521 22.67276 32036 ft 419 kts 303°
2026-05-07 07:08 38.10823 22.61240 32034 ft 419 kts 303°
2026-05-07 07:08 38.14144 22.55154 32034 ft 419 kts 303°
2026-05-07 07:09 38.17466 22.49067 32035 ft 419 kts 303°
2026-05-07 07:09 38.20788 22.42975 32035 ft 419 kts 303°
2026-05-07 07:10 38.24105 22.36878 32037 ft 419 kts 303°
2026-05-07 07:10 38.27419 22.30771 32037 ft 419 kts 303°
2026-05-07 07:11 38.30725 22.24658 32038 ft 419 kts 303°
2026-05-07 07:11 38.34036 22.18538 32032 ft 420 kts 303°
2026-05-07 07:12 38.37350 22.12391 32018 ft 422 kts 302°
2026-05-07 07:12 38.40675 22.06220 32015 ft 423 kts 303°
2026-05-07 07:13 38.44005 22.00028 32014 ft 424 kts 302°
2026-05-07 07:13 38.47334 21.93816 32016 ft 424 kts 302°
2026-05-07 07:14 38.50659 21.87589 32019 ft 425 kts 302°
2026-05-07 07:14 38.53988 21.81356 32022 ft 425 kts 302°
2026-05-07 07:15 38.57319 21.75118 32022 ft 425 kts 302°
2026-05-07 07:15 38.60641 21.68878 31954 ft 426 kts 302°
2026-05-07 07:16 38.62306 21.65746 31699 ft 426 kts 302°
2026-05-07 07:16 38.63947 21.62655 31453 ft 426 kts 302°
2026-05-07 07:16 38.65633 21.59474 31126 ft 425 kts 302°
2026-05-07 07:16 38.67285 21.56354 30550 ft 422 kts 302°
2026-05-07 07:17 38.68926 21.53251 29961 ft 420 kts 302°
2026-05-07 07:17 38.70557 21.50162 29372 ft 417 kts 302°
2026-05-07 07:17 38.72177 21.47093 28759 ft 415 kts 302°
2026-05-07 07:17 38.73792 21.44038 28152 ft 413 kts 302°
2026-05-07 07:18 38.75377 21.41039 27563 ft 411 kts 302°
2026-05-07 07:18 38.76974 21.38012 26972 ft 409 kts 302°
2026-05-07 07:18 38.78558 21.35001 26375 ft 406 kts 302°
2026-05-07 07:18 38.80129 21.32003 25790 ft 404 kts 302°
2026-05-07 07:19 38.81691 21.29021 25212 ft 402 kts 302°
2026-05-07 07:19 38.83242 21.26064 24631 ft 399 kts 303°
2026-05-07 07:19 38.84786 21.23121 24085 ft 396 kts 303°
2026-05-07 07:19 38.86318 21.20196 23522 ft 393 kts 303°
2026-05-07 07:20 38.87836 21.17295 23002 ft 390 kts 303°
2026-05-07 07:20 38.89338 21.14419 22483 ft 386 kts 303°
2026-05-07 07:20 38.90827 21.11572 22014 ft 382 kts 303°
2026-05-07 07:20 38.92297 21.08758 21540 ft 378 kts 303°
2026-05-07 07:21 38.93751 21.05970 21089 ft 373 kts 303°
2026-05-07 07:21 38.95186 21.03216 20640 ft 369 kts 303°
2026-05-07 07:21 38.96603 21.00489 20193 ft 365 kts 303°
2026-05-07 07:21 38.98004 20.97788 19742 ft 361 kts 303°
2026-05-07 07:22 38.99393 20.95112 19294 ft 358 kts 303°
2026-05-07 07:22 39.00770 20.92459 18850 ft 356 kts 303°
2026-05-07 07:22 39.02139 20.89822 18394 ft 353 kts 303°
2026-05-07 07:22 39.03501 20.87201 17937 ft 351 kts 303°
2026-05-07 07:23 39.04853 20.84595 17478 ft 349 kts 303°
2026-05-07 07:23 39.06197 20.82001 17020 ft 348 kts 303°
2026-05-07 07:23 39.07533 20.79420 16554 ft 346 kts 303°
2026-05-07 07:23 39.08863 20.76849 16086 ft 344 kts 303°
2026-05-07 07:24 39.10183 20.74290 15632 ft 342 kts 303°
2026-05-07 07:24 39.11495 20.71744 15167 ft 340 kts 303°
2026-05-07 07:24 39.12799 20.69213 14714 ft 338 kts 303°
2026-05-07 07:24 39.14098 20.66694 14247 ft 337 kts 303°
2026-05-07 07:25 39.16672 20.61690 13321 ft 334 kts 303°
2026-05-07 07:25 39.17948 20.59204 12861 ft 332 kts 303°
2026-05-07 07:25 39.19216 20.56726 12384 ft 330 kts 303°
2026-05-07 07:26 39.20480 20.54258 11918 ft 329 kts 303°
2026-05-07 07:26 39.21739 20.51804 11447 ft 327 kts 304°
2026-05-07 07:26 39.22995 20.49357 10965 ft 327 kts 304°
2026-05-07 07:26 39.24247 20.46915 10593 ft 324 kts 303°
2026-05-07 07:27 39.25447 20.44570 10466 ft 311 kts 303°
2026-05-07 07:27 39.26613 20.42282 10338 ft 299 kts 303°
2026-05-07 07:27 39.27736 20.40074 10131 ft 291 kts 303°
2026-05-07 07:27 39.28852 20.37881 9935 ft 286 kts 303°
2026-05-07 07:28 39.29934 20.35762 9816 ft 287 kts 303°
2026-05-07 07:28 39.30677 20.34308 9691 ft 287 kts 303°
2026-05-07 07:28 39.31771 20.32167 9347 ft 285 kts 303°
2026-05-07 07:28 39.32860 20.30032 8969 ft 284 kts 303°
2026-05-07 07:29 39.34292 20.27218 8457 ft 283 kts 303°
2026-05-07 07:29 39.35020 20.25787 8204 ft 282 kts 303°
2026-05-07 07:29 39.36093 20.23672 7821 ft 280 kts 303°
2026-05-07 07:29 39.37159 20.21571 7449 ft 279 kts 303°
2026-05-07 07:30 39.38221 20.19477 7071 ft 278 kts 303°
2026-05-07 07:30 39.39279 20.17391 6692 ft 277 kts 303°
2026-05-07 07:30 39.40339 20.15297 6129 ft 281 kts 303°
2026-05-07 07:30 39.41426 20.13147 5380 ft 291 kts 303°
2026-05-07 07:31 39.42557 20.10910 4570 ft 303 kts 303°
2026-05-07 07:31 39.43696 20.08559 3636 ft 315 kts 296°
2026-05-07 07:31 39.44144 20.05785 2888 ft 319 kts 265°
2026-05-07 07:31 39.43809 20.03066 2846 ft 299 kts 261°
2026-05-07 07:32 39.43761 20.00537 2878 ft 266 kts 279°
2026-05-07 07:32 39.44266 19.98388 2917 ft 236 kts 296°
2026-05-07 07:32 39.45123 19.96702 2983 ft 215 kts 311°
2026-05-07 07:32 39.46199 19.95441 2851 ft 200 kts 325°
2026-05-07 07:33 39.47351 19.94636 2616 ft 178 kts 338°
2026-05-07 07:33 39.48489 19.94204 2397 ft 166 kts 348°
2026-05-07 07:33 39.49596 19.93924 2140 ft 160 kts 349°
2026-05-07 07:33 39.50683 19.93654 1901 ft 158 kts 349°
2026-05-07 07:34 39.51749 19.93384 1671 ft 152 kts 349°
2026-05-07 07:34 39.52762 19.93126 1433 ft 146 kts 349°
2026-05-07 07:34 39.53751 19.92868 1213 ft 144 kts 349°
2026-05-07 07:34 39.54728 19.92612 999 ft 143 kts 349°
2026-05-07 07:35 39.55700 19.92360 784 ft 142 kts 349°
2026-05-07 07:35 39.56668 19.92112 572 ft 142 kts 349°
2026-05-07 07:35 39.57634 19.91870 363 ft 141 kts 349°
2026-05-07 07:35 39.58596 19.91626 136 ft 141 kts 349°
2026-05-07 07:36 39.59549 19.91383 18 ft 138 kts 350°
2026-05-07 07:36 39.60377 19.91179 9 ft 90 kts 347°
2026-05-07 07:36 39.60745 19.91075 11 ft 41 kts 348°
2026-05-07 07:36 39.60985 19.91014 9 ft 14 kts 354°
2026-05-07 07:37 39.61047 19.91064 9 ft 0 kts 54°
2026-05-07 07:38 39.61057 19.91086 10 ft 8 kts 66°
2026-05-07 07:38 39.61030 19.91130 10 ft 7 kts 163°
2026-05-07 07:38 39.60957 19.91150 9 ft 13 kts 168°
2026-05-07 07:38 39.60892 19.91201 9 ft 10 kts 107°
2026-05-07 07:39 39.60889 19.91276 9 ft 7 kts 77°
2026-05-07 07:39 39.60893 19.91305 9 ft 0 kts 81°